Weather History for KFWA - March, 2013

Change the Weather History Date:

Saturday, March 2, 2013

  Actual Average Record
Temperature  
Mean Temperature 28 °F 33 °F  
Max Temperature 31 °F 42 °F 69 °F (1992)
Min Temperature 25 °F 24 °F -7 °F (1980)
Degree Days  
Heating Degree Days 37 32  
Month to date heating degree days 72 64  
Since 1 July heating degree days 4463 4662  
Cooling Degree Days 0 0  
Month to date cooling degree days 0 0  
Year to date cooling degree days 0 0  
Moisture  
Dew Point 19 °F    
Average Humidity 72    
Maximum Humidity 81    
Minimum Humidity 63    
Precipitation  
Precipitation T in 0.07 in 0.72 in (1940)
Month to date precipitation T 0.15  
Year to date precipitation 5.29 4.45  
Snow  
Snow 0.10 in 0.20 in 4.00 in (2014)
Month to date snowfall 0.1 0.4  
Since 1 July snowfall 20.5 28.8  
Snow Depth T in    
Sea Level Pressure  
Sea Level Pressure 30.10 in    
Wind  
Wind Speed 9 mph (North)    
Max Wind Speed 14 mph    
Max Gust Speed 18 mph    
Visibility 9 miles    
Events Snow    
T = Trace of Precipitation, MM = Missing Value Source: NWS Daily Summary

Daily Weather History Graph

Daily Weather History Graph

Search for Another Location

Airport or City:

Trip Planner

Search our weather history database for the weather conditions in past years. The results will help you decide how hot, cold, wet, or windy it might be!

Date:

Astronomy

Mar. 02, 2013 Rise Set
Actual Time 7:12 AM EST 6:33 PM EST
Civil Twilight 6:45 AM EST 7:00 PM EST
Nautical Twilight 6:13 AM EST 7:32 PM EST
Astronomical Twilight 5:41 AM EST 8:04 PM EST
Moon No Moon Rise 9:37 AM EST (3/2)
Length of Visible Light 12h 15m
Length of Day
11h 20m
Waning Gibbous, 74% of the Moon is Illuminated
Mar 2
Waning Gibbous
Mar 4
Last Quarter
Mar 11
New
Mar 19
First Quarter
Mar 27
Full

Hourly Weather History & Observations

Time (EST) Temp. Windchill Dew Point Humidity Pressure Visibility Wind Dir Wind Speed Gust Speed Precip Events Conditions
12:54 AM 26.1 °F 15.6 °F 18.0 °F 71% 30.12 in 9.0 mi NE 11.5 mph - 0.00 in Snow Light Snow
1:46 AM 24.8 °F 14.6 °F 19.4 °F 80% 30.09 in 5.0 mi NNE 10.4 mph - 0.00 in Snow Light Snow
1:54 AM 25.0 °F 18.1 °F 19.9 °F 81% 30.12 in 5.0 mi NNE 5.8 mph - 0.00 in Snow Light Snow
2:19 AM 24.8 °F 19.1 °F 21.2 °F 86% 30.09 in 7.0 mi North 4.6 mph - 0.00 in Snow Light Snow
2:54 AM 25.0 °F 18.1 °F 19.9 °F 81% 30.11 in 9.0 mi North 5.8 mph - 0.00 in Snow Light Snow
3:04 AM 24.8 °F 17.9 °F 19.4 °F 80% 30.08 in 7.0 mi North 5.8 mph - 0.00 in Snow Light Snow
3:54 AM 26.1 °F 20.5 °F 19.9 °F 78% 30.11 in 9.0 mi NNE 4.6 mph - 0.00 in Snow Light Snow
4:54 AM 26.1 °F 19.4 °F 19.0 °F 75% 30.10 in 9.0 mi North 5.8 mph - 0.00 in Snow Light Snow
5:54 AM 26.6 °F 16.8 °F 19.4 °F 74% 30.07 in 10.0 mi North 10.4 mph - N/A   Overcast
6:54 AM 25.0 °F 14.2 °F 19.0 °F 78% 30.11 in 10.0 mi North 11.5 mph - 0.00 in Snow Light Snow
7:54 AM 25.0 °F 15.5 °F 18.0 °F 75% 30.12 in 9.0 mi NNE 9.2 mph - 0.00 in Snow Light Snow
8:54 AM 25.0 °F 14.8 °F 18.0 °F 75% 30.13 in 9.0 mi North 10.4 mph - 0.00 in Snow Light Snow
9:54 AM 26.1 °F 15.6 °F 17.1 °F 69% 30.13 in 9.0 mi North 11.5 mph - 0.00 in   Overcast
10:54 AM 27.0 °F 16.7 °F 18.0 °F 69% 30.13 in 10.0 mi North 11.5 mph 18.4 mph 0.00 in Snow Light Snow
11:54 AM 28.0 °F 17.5 °F 18.0 °F 66% 30.12 in 9.0 mi North 12.7 mph - 0.00 in Snow Light Snow
12:14 PM 28.4 °F 18.5 °F 17.6 °F 64% 30.09 in 9.0 mi North 11.5 mph - 0.00 in   Mostly Cloudy
12:54 PM 28.9 °F 21.9 °F 19.0 °F 67% 30.11 in 10.0 mi NE 6.9 mph - 0.00 in   Mostly Cloudy
1:54 PM 30.0 °F 22.4 °F 19.0 °F 64% 30.09 in 10.0 mi NNW 8.1 mph - N/A   Mostly Cloudy
2:54 PM 30.9 °F 22.2 °F 19.9 °F 64% 30.08 in 10.0 mi North 10.4 mph 13.8 mph N/A   Mostly Cloudy
3:54 PM 30.9 °F 21.2 °F 19.9 °F 64% 30.08 in 10.0 mi North 12.7 mph - N/A   Mostly Cloudy
4:54 PM 30.0 °F 22.4 °F 19.9 °F 66% 30.08 in 10.0 mi North 8.1 mph - N/A   Mostly Cloudy
5:54 PM 30.0 °F 22.4 °F 19.0 °F 64% 30.09 in 10.0 mi North 8.1 mph - N/A   Mostly Cloudy
6:54 PM 30.0 °F 21.1 °F 19.0 °F 64% 30.10 in 10.0 mi North 10.4 mph - N/A   Overcast
7:54 PM 28.9 °F 21.1 °F 19.0 °F 67% 30.11 in 10.0 mi North 8.1 mph - N/A   Overcast
8:54 PM 28.9 °F 22.8 °F 19.0 °F 67% 30.11 in 10.0 mi North 5.8 mph - N/A   Overcast
9:36 PM 28.4 °F 22.2 °F 19.4 °F 69% 30.08 in 10.0 mi North 5.8 mph - N/A   Overcast
9:54 PM 28.0 °F 20.0 °F 19.9 °F 72% 30.12 in 10.0 mi North 8.1 mph - N/A   Overcast
10:46 PM 26.6 °F 15.7 °F 19.4 °F 74% 30.08 in 10.0 mi North 12.7 mph - 0.00 in Snow Light Snow
10:54 PM 27.0 °F 16.1 °F 19.0 °F 72% 30.11 in 10.0 mi North 12.7 mph - 0.00 in Snow Light Snow
11:54 PM 26.1 °F 14.5 °F 17.1 °F 69% 30.12 in 10.0 mi North 13.8 mph - 0.00 in Snow Light Snow